Wetbulb
56.63 57.08 57.14 56.92 56.72 56.78 56.20 55.90 55.72 55.60 55.47 56.23 57.30 57.40 57.83 58.57 59.18 60.16 61.28 60.88 61.36 60.54 60.33 60.20 60.30 60.71 62.28 62.54 62.33 62.10 62.23 62.14 62.45 62.66 62.94 63.12 62.84 62.79 62.94 63.18 63.26 63.55 63.78
56.94 57.04 57.05 56.73 56.50 56.62 56.52 56.21 55.69 55.72 55.64 55.60 57.13 57.64 57.99 58.79 59.69 60.35 60.48 59.23 60.21 59.10 58.96 59.50 59.89 59.88 60.27 60.57 60.68 60.29 59.87 60.72 61.37 62.13 62.47 62.70 62.44 62.11 61.93 62.06 62.44 62.73 62.76
56.87 56.88 57.03 56.71 56.59 56.99 56.78 56.65 56.05 56.37 55.86 55.64 55.85 57.34 58.25 58.69 58.99 58.94 59.04 59.24 58.85 58.92 58.44 58.19 58.70 58.92 59.32 59.75 60.02 59.79 59.75 60.02 60.20 60.95 61.56 61.92 61.90 61.79 61.30 61.46 61.69 62.22 62.57
56.67 56.64 56.88 56.41 56.82 57.21 57.01 56.32 55.96 55.50 55.36 55.07 54.31 56.01 57.47 58.37 58.34 58.36 58.48 58.54 59.23 58.72 58.76 57.91 57.46 57.10 57.35 58.26 59.20 59.38 58.70 58.88 59.30 59.84 60.43 60.81 61.59 61.45 61.72 61.17 60.96 61.10 61.63
56.32 56.64 56.92 56.56 56.75 57.04 56.74 56.23 55.94 55.30 54.41 54.56 54.13 54.52 56.54 57.24 57.81 57.73 57.44 57.49 58.33 58.79 58.63 58.44 56.93 57.09 56.07 56.63 57.80 58.20 58.07 58.07 58.19 59.00 59.45 59.91 60.68 60.95 61.04 60.76 60.35 60.39 60.43
56.18 56.80 57.24 56.54 56.76 56.58 56.07 56.02 54.70 55.43 54.82 54.04 53.13 54.08 55.60 56.82 57.22 57.43 55.79 55.88 57.18 57.55 57.15 56.68 56.41 55.91 56.55 55.72 56.05 57.12 57.12 57.15 57.59 58.50 58.27 58.86 59.35 59.96 60.16 60.08 59.60 59.83 59.47
56.32 57.21 56.59 56.42 56.37 55.60 55.26 55.11 54.63 54.07 54.06 54.25 52.99 52.54 54.73 55.45 54.97 55.83 55.87 55.27 55.78 56.01 56.07 55.88 55.22 55.11 55.12 56.94 56.37 55.65 56.30 56.44 56.64 57.33 57.79 57.93 59.00 59.62 59.30 58.74 58.58 58.49 59.06
56.90 55.33 55.76 55.41 55.44 55.04 54.72 54.31 54.03 52.83 53.25 54.05 50.40 50.71 48.79 50.91 53.32 53.22 54.54 53.98 54.32 55.67 54.70 54.96 54.57 54.81 54.95 54.63 54.52 53.79 55.04 55.47 56.05 56.80 56.62 56.46 57.60 58.87 58.96 58.03 58.23 57.93 58.32
55.48 55.35 54.82 54.45 54.54 54.64 53.87 54.12 53.43 52.52 50.62 52.71 53.13 49.68 46.42 45.51 47.94 53.04 52.99 53.13 52.75 53.24 53.66 54.11 54.26 54.49 54.54 54.09 54.69 55.02 55.13 53.97 55.12 56.16 56.11 56.11 56.33 57.09 58.74 57.87 57.72 57.26 57.60
54.20 53.79 53.71 53.30 53.34 53.44 52.71 52.77 52.38 52.48 52.06 49.90 51.94 52.13 52.00 50.39 45.91 45.19 51.29 51.72 53.52 52.41 53.21 53.82 53.57 53.91 53.94 54.37 54.14 53.19 53.22 53.30 54.54 55.38 56.03 56.62 56.25 56.81 56.95 56.97 56.15 56.31 56.35
53.06 52.24 52.32 52.04 51.51 51.78 51.86 51.51 51.63 51.32 51.72 50.21 50.24 50.15 50.15 50.58 50.54 47.80 45.30 48.10 51.07 52.31 52.50 52.97 53.04 53.09 53.73 54.04 54.42 55.26 54.47 53.70 54.74 54.92 56.02 56.69 56.78 56.65 56.75 56.15 55.25 54.48 55.27
52.19 51.39 51.38 51.23 51.53 50.89 50.47 50.84 51.17 51.09 50.52 50.28 50.29 50.00 48.88 47.48 47.25 47.10 45.79 46.59 46.86 48.91 51.28 52.03 52.16 52.87 53.51 53.73 53.11 53.00 53.22 53.41 54.50 54.77 55.66 56.63 56.44 56.22 55.90 55.49 54.59 53.24 53.57
50.45 49.72 50.23 50.14 49.97 50.31 49.90 50.00 49.78 49.94 49.87 49.17 49.44 48.79 49.30 48.92 49.38 48.58 47.21 46.20 45.64 48.05 48.33 50.68 51.87 52.63 52.61 52.71 52.77 52.15 52.93 53.30 54.02 54.43 55.52 56.04 55.80 55.39 54.83 54.55 54.15 52.75 52.14
49.32 49.64 49.29 49.35 49.14 48.93 48.78 49.03 48.97 49.23 49.01 49.09 48.71 48.71 48.36 48.52 48.91 48.43 47.28 45.90 43.80 44.86 46.15 46.93 50.08 51.71 52.66 52.67 52.73 51.97 52.55 53.55 53.84 53.91 54.62 54.44 53.97 53.77 53.67 53.38 53.04 52.08 51.03
47.87 48.54 48.63 48.13 48.17 48.00 47.82 47.84 47.45 47.39 47.73 47.82 47.89 48.21 47.39 47.77 48.20 48.16 48.02 47.39 45.04 40.62 41.79 44.95 45.38 49.94 50.30 51.46 51.67 51.56 51.74 52.91 54.52 54.18 53.45 52.79 52.71 52.67 52.64 52.30 52.03 51.71 50.29
47.80 47.65 47.33 47.18 47.06 47.03 47.01 46.85 46.70 47.02 46.11 46.25 46.28 45.96 46.07 46.50 46.71 47.13 47.06 47.04 46.62 44.44 41.45 45.62 45.58 47.34 48.50 48.95 49.90 50.15 50.40 49.83 51.46 52.69 53.27 52.49 52.24 52.37 52.04 51.72 51.47 51.40 50.53
47.08 46.63 46.45 46.27 46.05 45.59 45.60 45.18 44.97 45.02 44.31 44.44 44.98 44.72 44.66 45.45 45.10 45.37 45.54 45.67 45.14 45.06 41.93 44.00 46.23 47.33 46.78 46.93 47.69 48.77 49.44 49.32 49.83 52.24 53.02 52.60 52.26 51.78 51.77 51.32 51.03 50.87 50.66
46.89 46.21 45.76 45.01 44.54 44.20 44.04 43.34 43.04 43.29 42.69 42.49 43.05 43.10 43.00 43.93 43.81 44.52 44.46 44.18 44.22 44.48 42.62 40.41 42.96 43.31 44.14 45.50 45.71 45.80 47.18 47.44 47.30 49.24 51.23 51.22 51.34 50.61 50.75 50.88 50.77 50.49 50.45
45.65 45.21 44.23 43.14 42.66 42.64 42.28 42.48 42.23 41.74 41.75 41.98 42.13 41.90 41.85 42.15 41.76 42.76 43.10 43.09 43.54 43.90 43.26 41.56 40.89 43.28 43.72 44.27 43.45 44.30 44.06 44.48 45.70 47.42 49.94 50.03 49.51 49.31 49.60 50.29 50.44 49.96 49.93
43.64 43.18 42.79 42.14 41.94 41.37 41.29 41.01 40.20 39.92 40.39 40.76 41.43 41.61 41.39 41.07 40.67 41.10 41.28 41.15 41.86 41.83 41.83 41.28 40.79 40.32 40.13 41.16 41.22 40.33 40.45 43.01 43.45 45.08 46.37 47.41 48.25 48.04 48.56 48.57 49.15 48.07 48.17
42.23 41.65 40.38 40.22 40.33 40.10 39.46 39.31 39.11 38.97 38.75 38.69 39.45 40.22 40.65 40.65 41.07 41.89 40.67 40.70 40.94 40.83 40.41 39.54 38.14 38.18 38.02 38.48 38.34 40.27 39.43 41.03 42.29 43.12 42.49 43.26 44.39 44.57 45.37 47.56 46.12 46.33 47.44
39.67 39.30 38.72 38.55 38.83 38.17 40.82 41.94 40.59 38.28 38.29 37.95 37.56 38.68 39.39 39.79 40.20 42.54 42.68 43.26 42.94 40.24 39.06 38.41 38.10 37.46 37.71 38.60 39.76 39.41 39.25 38.22 36.59 41.60 38.60 39.42 42.19 40.95 42.48 43.50 45.90 46.79 46.89
38.04 37.59 37.47 37.47 36.93 37.36 40.24 40.74 40.38 38.08 37.18 37.08 37.26 37.60 37.85 38.58 39.58 38.83 40.89 42.12 42.60 43.70 43.00 40.57 38.55 38.52 38.06 38.82 39.09 38.00 38.51 38.07 37.72 40.10 37.58 37.03 39.20 39.34 42.45 43.59 45.04 43.48 45.41
37.14 36.83 36.75 36.90 36.50 36.72 39.50 39.69 39.41 36.90 36.48 36.54 36.57 36.62 36.46 36.74 37.92 38.87 38.23 37.77 38.72 39.83 41.08 41.00 40.30 40.25 40.17 40.08 39.32 39.23 38.83 38.54 39.16 39.17 38.63 34.04 38.32 38.17 40.10 41.48 44.88 43.23 42.27
36.83 36.61 36.77 36.30 35.76 36.02 38.94 39.06 37.84 35.22 35.12 35.04 36.06 36.38 36.21 35.88 38.43 40.00 37.57 36.76 36.95 38.10 41.28 42.20 42.31 42.42 42.49 42.32 41.80 39.15 36.34 34.64 33.31 35.40 37.93 35.90 36.22 36.03 36.55 38.38 40.12 40.35 40.00
36.14 36.31 35.95 36.28 37.25 35.87 38.28 38.97 37.36 34.77 33.61 34.02 35.16 35.86 38.22 37.66 39.46 40.02 36.78 35.69 34.10 35.40 37.05 37.60 38.22 39.33 40.78 40.17 40.73 39.24 37.36 34.35 33.44 32.96 36.55 34.06 34.91 34.22 33.85 34.81 34.84 36.24 34.96
MSLP
1018.42 1018.32 1018.39 1018.39 1018.46 1018.39 1018.18 1017.94 1017.71 1017.44 1017.13 1017.06 1016.95 1016.79 1016.51 1016.37 1016.21 1016.20 1016.67 1017.21 1017.23 1017.10 1016.99 1016.99 1016.89 1016.67 1016.32 1016.07 1015.91 1015.78 1015.61 1015.43 1015.20 1014.94 1014.71 1014.40 1014.35 1014.19 1014.00 1013.83 1013.63 1013.52 1013.37
1018.79 1018.75 1018.53 1018.64 1018.68 1018.65 1018.42 1018.18 1017.88 1017.60 1017.29 1017.14 1017.00 1016.86 1016.64 1016.54 1016.45 1016.47 1016.48 1017.02 1017.33 1017.36 1017.21 1017.13 1017.06 1016.93 1016.68 1016.44 1016.24 1016.00 1015.81 1015.67 1015.41 1015.13 1014.84 1014.62 1014.45 1014.37 1014.16 1013.93 1013.75 1013.58 1013.39
1018.98 1018.95 1018.89 1018.85 1018.98 1018.99 1018.77 1018.46 1018.18 1017.82 1017.57 1017.35 1017.15 1017.05 1016.85 1016.74 1016.72 1016.67 1016.79 1016.87 1017.12 1017.18 1017.20 1017.22 1017.22 1017.09 1016.92 1016.67 1016.34 1016.15 1015.96 1015.84 1015.68 1015.32 1015.02 1014.83 1014.59 1014.41 1014.24 1014.06 1013.88 1013.58 1013.37
1019.20 1019.01 1018.89 1018.95 1019.13 1019.04 1018.91 1018.69 1018.48 1018.26 1017.90 1017.75 1017.50 1017.22 1017.13 1016.99 1016.91 1016.86 1016.96 1017.05 1016.91 1016.85 1017.00 1017.04 1017.04 1016.97 1016.92 1016.70 1016.41 1016.21 1016.04 1015.88 1015.74 1015.54 1015.20 1014.92 1014.71 1014.48 1014.32 1014.06 1013.90 1013.62 1013.37
1019.24 1019.13 1019.10 1019.10 1019.15 1019.12 1018.96 1018.96 1018.71 1018.56 1018.31 1018.08 1017.76 1017.44 1017.29 1017.20 1017.08 1017.00 1016.98 1017.06 1017.11 1017.19 1017.01 1016.92 1016.92 1016.79 1016.81 1016.63 1016.49 1016.23 1016.10 1015.88 1015.73 1015.57 1015.32 1015.01 1014.87 1014.60 1014.39 1014.18 1013.97 1013.74 1013.41
1019.37 1019.34 1019.30 1019.30 1019.36 1019.24 1019.18 1019.21 1019.13 1018.93 1018.58 1018.47 1018.00 1017.28 1017.28 1017.38 1017.36 1017.26 1017.26 1017.13 1017.08 1017.35 1017.29 1017.10 1016.84 1016.57 1016.62 1016.58 1016.59 1016.48 1016.15 1015.95 1015.71 1015.64 1015.35 1015.18 1014.86 1014.65 1014.45 1014.23 1014.07 1013.85 1013.55
1019.54 1019.47 1019.42 1019.51 1019.61 1019.56 1019.62 1019.50 1019.39 1019.19 1018.87 1018.78 1018.06 1017.62 1016.93 1017.14 1017.35 1017.33 1017.09 1017.21 1017.13 1017.19 1017.25 1017.08 1016.88 1016.57 1016.41 1016.31 1016.16 1016.24 1016.33 1016.18 1015.79 1015.44 1015.33 1015.06 1014.80 1014.53 1014.42 1014.25 1014.06 1013.90 1013.67
1019.67 1019.74 1019.74 1019.74 1019.86 1019.98 1019.78 1019.87 1019.77 1019.66 1019.23 1019.12 1019.02 1018.13 1017.33 1017.01 1017.00 1017.01 1017.12 1017.28 1017.16 1017.01 1016.89 1016.84 1016.68 1016.45 1016.31 1016.14 1016.01 1016.08 1016.13 1016.19 1016.02 1015.62 1015.25 1015.06 1014.73 1014.46 1014.38 1014.25 1014.19 1013.96 1013.67
1019.95 1020.15 1020.14 1020.07 1020.02 1020.06 1020.17 1020.22 1020.16 1020.02 1019.87 1019.47 1019.39 1019.33 1018.40 1017.92 1017.89 1016.88 1016.85 1017.20 1017.22 1017.14 1016.93 1016.72 1016.57 1016.28 1016.06 1016.02 1015.96 1015.72 1015.94 1016.12 1016.06 1015.77 1015.42 1015.08 1014.77 1014.33 1014.28 1014.26 1014.15 1013.84 1013.72
1020.22 1020.42 1020.40 1020.46 1020.27 1020.26 1020.45 1020.50 1020.36 1020.35 1020.17 1019.90 1019.65 1019.47 1019.57 1019.41 1018.79 1017.84 1017.13 1017.23 1016.85 1016.94 1016.82 1016.57 1016.42 1016.22 1015.91 1015.78 1015.66 1015.72 1015.95 1016.07 1015.93 1015.72 1015.37 1015.05 1014.73 1014.37 1014.05 1014.10 1014.04 1013.84 1013.51
1020.49 1020.61 1020.62 1020.71 1020.64 1020.50 1020.81 1020.81 1020.69 1020.51 1020.46 1020.22 1020.06 1019.86 1019.56 1019.37 1019.09 1018.85 1017.99 1017.32 1017.14 1016.89 1016.73 1016.58 1016.35 1016.20 1015.95 1015.71 1015.71 1015.42 1015.41 1015.56 1015.57 1015.46 1015.31 1014.92 1014.57 1014.29 1014.02 1014.03 1014.07 1013.87 1013.54
1020.53 1020.66 1020.76 1020.91 1020.81 1020.89 1021.06 1020.99 1020.84 1020.68 1020.59 1020.42 1020.28 1020.12 1019.81 1019.66 1019.29 1019.03 1018.52 1017.88 1017.56 1017.04 1016.72 1016.41 1016.20 1015.91 1015.72 1015.51 1015.48 1015.47 1015.61 1015.59 1015.47 1015.21 1015.02 1014.75 1014.45 1014.18 1014.00 1013.95 1013.90 1013.73 1013.50
1020.59 1020.80 1020.95 1021.05 1021.04 1021.13 1021.14 1021.04 1020.95 1020.78 1020.62 1020.51 1020.47 1020.22 1019.90 1019.62 1019.43 1019.18 1018.87 1018.27 1017.75 1017.14 1016.81 1016.05 1015.53 1015.26 1015.19 1015.30 1015.22 1015.21 1015.28 1015.38 1015.25 1015.04 1014.71 1014.43 1014.22 1014.15 1014.07 1013.85 1013.68 1013.56 1013.43
1020.88 1021.03 1021.08 1020.98 1021.17 1021.19 1021.23 1021.06 1020.93 1020.75 1020.67 1020.59 1020.52 1020.40 1020.12 1019.83 1019.61 1019.33 1019.10 1018.75 1018.03 1017.64 1017.26 1016.29 1015.80 1015.10 1014.91 1014.87 1014.85 1014.90 1014.95 1014.89 1014.94 1014.79 1014.64 1014.46 1014.22 1013.99 1013.83 1013.74 1013.57 1013.33 1013.28
1021.01 1021.04 1021.11 1021.08 1021.16 1021.20 1021.25 1021.17 1021.01 1020.78 1020.66 1020.57 1020.39 1020.18 1020.02 1019.66 1019.41 1019.17 1018.95 1018.78 1018.49 1017.62 1017.00 1016.68 1016.13 1015.36 1015.24 1014.93 1014.71 1014.61 1014.45 1014.22 1014.08 1013.96 1013.92 1013.90 1013.90 1013.69 1013.41 1013.29 1013.23 1013.23 1013.05
1021.06 1021.01 1021.05 1021.16 1021.22 1021.22 1021.22 1021.18 1020.97 1020.83 1020.73 1020.53 1020.33 1020.08 1019.85 1019.61 1019.34 1019.01 1018.75 1018.49 1018.29 1017.79 1016.65 1016.53 1016.27 1015.77 1015.53 1015.03 1014.59 1014.32 1014.07 1013.94 1013.71 1013.57 1013.40 1013.24 1013.21 1013.08 1013.06 1012.81 1012.70 1012.72 1012.77
1021.16 1021.18 1021.14 1021.11 1021.33 1021.39 1021.40 1021.29 1021.02 1020.84 1020.80 1020.47 1020.24 1019.98 1019.71 1019.45 1019.14 1018.80 1018.56 1018.27 1017.95 1017.69 1016.80 1016.17 1015.98 1015.60 1015.20 1014.87 1014.43 1014.12 1013.81 1013.48 1013.19 1012.79 1012.54 1012.47 1012.49 1012.57 1012.46 1012.36 1012.22 1012.12 1012.15
1021.24 1021.22 1021.21 1021.46 1021.65 1021.58 1021.54 1021.21 1021.03 1020.90 1020.72 1020.37 1020.13 1019.88 1019.55 1019.25 1019.01 1018.73 1018.38 1018.00 1017.69 1017.40 1017.02 1016.12 1015.96 1015.65 1015.27 1014.98 1014.65 1014.18 1013.70 1013.56 1013.41 1012.93 1012.40 1012.22 1012.20 1012.07 1011.93 1011.80 1011.68 1011.61 1011.53
1021.41 1021.32 1021.46 1021.63 1021.72 1021.59 1021.43 1021.19 1021.07 1020.78 1020.45 1020.16 1019.95 1019.64 1019.38 1019.18 1018.88 1018.55 1018.22 1017.79 1017.45 1017.00 1016.69 1016.22 1015.61 1015.36 1014.96 1014.80 1014.61 1014.45 1014.14 1013.76 1013.38 1012.75 1012.19 1011.77 1011.78 1011.75 1011.58 1011.25 1011.07 1011.08 1011.09
1021.55 1021.68 1021.74 1021.66 1021.53 1021.43 1021.28 1021.01 1020.90 1020.60 1020.39 1020.11 1019.78 1019.47 1019.21 1018.99 1018.69 1018.36 1018.04 1017.79 1017.27 1016.74 1016.29 1015.84 1015.29 1015.29 1015.28 1015.21 1014.93 1014.37 1013.72 1013.35 1012.80 1012.34 1011.99 1011.73 1011.37 1011.10 1010.92 1010.79 1010.64 1010.45 1010.52
1021.80 1021.76 1021.71 1021.50 1021.34 1021.29 1020.96 1020.88 1020.86 1020.63 1020.20 1019.73 1019.38 1019.02 1018.68 1018.42 1018.28 1018.04 1017.79 1017.48 1017.26 1016.73 1016.13 1015.70 1015.27 1015.13 1014.91 1014.69 1014.47 1013.92 1013.49 1013.06 1012.57 1012.26 1011.63 1011.07 1010.66 1010.38 1010.29 1010.00 1010.08 1010.07 1009.98
1021.66 1021.68 1021.57 1021.31 1021.04 1020.84 1020.66 1020.69 1020.63 1020.33 1019.90 1019.39 1018.85 1018.46 1018.10 1017.82 1017.55 1017.32 1017.10 1016.77 1016.71 1016.49 1016.12 1015.65 1015.15 1014.70 1014.18 1014.03 1013.81 1013.49 1013.16 1012.80 1012.26 1011.79 1011.69 1010.99 1010.56 1010.13 1009.85 1009.53 1009.36 1009.33 1009.32
1021.54 1021.38 1021.18 1020.98 1020.89 1020.75 1020.52 1020.33 1020.14 1019.91 1019.48 1018.92 1018.37 1017.91 1017.49 1017.22 1017.02 1016.67 1016.32 1016.02 1015.71 1015.44 1015.29 1014.98 1014.65 1014.37 1014.11 1013.67 1013.61 1013.34 1013.04 1012.64 1012.10 1011.66 1011.76 1010.95 1010.77 1010.16 1009.50 1008.94 1008.61 1008.84 1009.05
1021.21 1021.17 1021.01 1020.79 1020.50 1020.24 1019.97 1019.76 1019.59 1019.38 1018.87 1018.28 1017.79 1017.37 1016.99 1016.71 1016.43 1016.30 1015.92 1015.70 1015.40 1014.85 1014.39 1013.80 1013.67 1013.55 1013.32 1013.04 1013.07 1013.03 1012.88 1012.36 1011.96 1011.55 1011.48 1010.75 1010.25 1009.70 1009.15 1008.63 1008.06 1008.17 1008.39
1021.05 1020.80 1020.50 1020.17 1019.87 1019.45 1019.27 1019.10 1018.96 1018.66 1018.18 1017.59 1017.27 1016.86 1016.42 1016.23 1015.92 1015.80 1015.72 1015.50 1014.89 1014.15 1013.60 1013.00 1012.69 1012.60 1012.58 1012.44 1012.34 1012.38 1012.28 1012.18 1011.64 1011.23 1010.89 1010.52 1009.88 1009.29 1008.98 1008.31 1007.88 1007.80 1008.11
1020.43 1020.01 1019.55 1019.30 1018.97 1018.58 1018.41 1018.33 1018.39 1018.23 1017.70 1017.03 1016.65 1016.20 1015.83 1015.66 1015.41 1015.28 1015.32 1015.25 1014.67 1014.03 1013.50 1012.96 1012.48 1012.22 1011.98 1011.97 1012.30 1011.78 1011.71 1011.76 1011.57 1011.03 1010.43 1010.43 1009.72 1009.44 1008.94 1007.93 1007.78 1008.02 1008.04
Wind_Speed
4 4 4 4 4 5 5 6 6 7 8 8 7 6 6 6 5 2 6 10 9 10 10 11 13 15 14 14 14 13 14 13 12 12 12 11 9 7 9 9 9 9 9
3 3 3 4 5 5 5 6 6 6 6 7 6 6 6 5 4 4 3 7 7 8 9 10 12 13 15 15 15 15 13 11 12 12 12 11 9 9 9 10 10 10 11
3 3 3 4 4 4 6 5 7 6 6 6 7 5 5 6 4 4 4 4 6 7 5 5 9 10 12 14 15 15 13 12 12 12 12 12 10 10 9 9 10 10 11
3 2 2 4 4 4 4 5 5 6 5 6 6 5 4 3 4 4 3 4 4 5 4 2 3 5 7 10 12 13 13 12 12 13 13 12 13 10 10 10 10 11 11
2 2 3 3 4 3 4 5 5 5 6 6 6 4 4 4 3 3 5 5 4 4 4 1 2 6 4 6 10 10 10 11 12 13 13 13 13 12 11 11 12 14 13
1 2 2 3 4 4 4 5 7 6 5 6 8 6 2 3 3 3 6 6 4 5 5 5 5 4 8 3 8 11 8 9 10 13 12 12 12 13 11 13 13 15 14
2 2 3 3 4 4 4 6 5 7 5 6 5 6 3 3 3 3 4 4 4 4 5 5 4 4 5 6 11 8 8 9 9 9 12 13 13 12 12 13 14 14 15
3 3 4 4 5 4 6 6 6 5 4 5 5 6 3 0 2 6 3 4 5 4 6 6 7 7 5 5 5 3 7 8 9 10 10 12 14 14 11 13 14 14 14
4 4 4 4 5 4 4 5 5 6 4 5 6 3 4 4 8 3 3 3 5 5 6 6 9 7 7 6 6 5 8 6 9 10 12 12 12 13 12 12 15 15 15
5 5 4 5 5 4 5 5 5 4 4 5 5 2 3 5 3 5 4 8 2 5 7 4 6 7 7 3 5 5 4 6 8 11 11 13 13 14 12 12 13 15 15
4 5 5 5 5 4 4 5 5 5 4 4 4 4 5 5 6 5 8 6 7 6 6 5 7 7 7 4 4 6 8 8 10 10 12 14 14 14 15 12 13 14 15
3 5 4 4 4 5 5 4 4 5 5 4 4 5 5 4 6 6 8 9 10 7 7 7 6 4 5 4 6 5 5 9 12 12 13 14 15 15 14 13 14 14 14
3 4 4 4 4 4 4 4 5 5 5 5 6 5 5 5 6 6 7 8 8 8 6 7 5 4 3 3 5 6 8 12 14 15 15 16 16 16 16 15 14 14 14
3 4 4 4 5 5 5 5 4 4 5 4 7 6 6 6 6 6 6 8 9 7 9 11 8 4 3 3 4 4 6 11 14 17 18 18 17 16 16 16 15 14 14
3 4 4 5 5 6 6 6 5 6 5 6 6 5 6 6 6 6 6 6 8 10 8 8 6 7 7 6 6 6 8 10 13 17 17 16 17 17 16 16 15 15 13
4 4 4 5 5 6 6 6 5 6 7 6 6 7 8 6 7 6 6 7 7 9 12 7 9 11 10 9 10 9 9 12 15 18 18 17 17 17 17 16 16 15 14
4 4 5 6 6 7 7 7 7 7 8 9 8 8 9 10 7 7 7 7 8 8 12 9 9 8 12 10 10 10 9 9 8 13 14 17 15 15 17 17 16 15 15
3 4 6 6 6 7 8 8 8 8 9 9 10 10 10 8 10 9 8 10 9 9 10 15 9 8 9 11 10 12 8 8 10 15 16 13 12 15 18 18 16 16 15
4 5 5 6 7 7 8 8 8 8 9 10 10 10 11 11 11 9 10 9 9 8 9 10 10 8 7 6 10 10 11 9 9 17 18 15 14 18 20 20 17 16 15
5 5 5 6 6 7 8 7 9 10 10 10 10 10 10 11 12 11 10 11 11 10 10 10 9 7 7 7 8 9 8 7 8 7 10 12 13 15 17 18 18 15 14
4 5 6 6 6 7 7 7 9 10 10 11 11 11 10 10 12 13 9 10 11 11 9 9 11 9 8 7 8 7 9 7 8 7 9 7 7 5 5 12 14 14 14
5 6 7 7 6 7 10 10 11 10 11 12 11 11 11 12 12 14 17 18 14 11 12 10 10 11 12 9 9 8 8 7 8 2 3 5 3 4 6 5 9 11 14
6 7 8 8 9 9 11 13 15 10 11 11 13 12 11 9 11 11 14 15 14 17 19 14 12 11 12 10 8 11 10 8 9 7 1 9 5 8 6 6 11 7 8
7 8 9 10 10 9 14 14 16 11 11 12 12 12 12 12 12 12 11 12 12 12 13 9 11 11 11 8 7 8 10 10 8 6 4 7 5 8 5 5 8 9 10
8 9 10 11 11 11 13 14 13 10 11 13 11 11 10 12 15 16 10 12 14 13 13 19 17 17 17 18 16 7 6 5 5 5 4 5 4 5 4 6 4 8 8
10 9 11 11 14 13 13 12 11 8 11 9 10 10 12 13 17 14 9 11 13 13 12 13 11 11 13 5 19 10 6 6 5 5 3 4 4 3 4 2 0 1 4
Wind_Direction
44 38 29 29 29 6 9 2 5 2 12 3 12 7 19 20 20 17 99 70 47 45 37 25 22 16 6 13 12 11 11 3 360 357 4 9 10 11 4 3 5 0 352
40 24 36 30 22 13 3 354 2 1 2 1 5 8 6 22 17 27 27 108 94 60 35 27 16 11 12 11 4 355 343 353 351 352 5 7 6 4 357 353 357 354 343
60 32 26 25 25 12 357 356 4 351 355 359 351 8 7 1 357 15 25 357 146 133 103 44 8 356 357 356 358 355 353 351 348 350 358 3 357 347 342 348 352 356 353
33 33 24 35 15 5 357 358 1 350 351 356 345 351 345 349 340 351 340 343 355 347 163 120 22 333 334 342 345 347 346 348 348 344 348 350 356 357 342 345 345 346 350
53 356 18 24 7 2 1 352 353 358 346 350 329 331 324 319 319 312 330 331 322 300 331 43 243 258 277 326 328 334 340 346 346 340 340 337 339 351 356 357 350 341 335
21 353 2 18 2 351 8 360 350 350 337 349 326 312 309 298 312 313 335 324 330 318 311 322 332 332 227 279 314 314 323 333 342 336 333 329 327 331 341 346 344 334 331
64 8 13 17 7 5 358 354 354 344 349 356 320 340 280 214 280 287 323 302 299 300 307 309 307 329 310 276 294 282 306 316 326 336 339 333 332 332 330 333 337 330 330
54 24 25 25 20 351 6 3 4 346 344 21 349 290 342 137 170 311 2 308 299 295 303 293 315 314 307 309 299 304 275 296 316 322 336 333 328 330 338 340 331 327 328
74 43 38 21 19 7 1 358 360 354 347 340 16 330 340 0 339 103 239 349 308 309 315 307 309 312 305 311 301 273 221 266 299 312 324 327 321 314 330 338 326 324 328
74 54 32 21 24 8 6 348 360 344 337 340 334 25 298 303 319 326 348 321 335 297 299 303 308 313 305 305 306 261 203 264 284 303 318 324 319 313 316 317 321 321 324
76 60 37 24 18 21 4 349 345 348 332 326 326 324 313 300 259 263 297 303 303 329 318 316 295 302 301 303 294 280 206 239 263 286 307 316 313 311 313 318 314 315 317
105 63 39 27 23 16 359 343 335 328 327 316 310 305 299 305 313 306 302 305 311 305 316 299 287 287 292 287 292 271 240 255 265 273 295 308 309 308 307 308 307 310 313
66 54 39 20 13 359 343 337 329 323 323 324 312 304 302 288 292 289 288 288 294 301 305 286 266 240 274 283 283 260 240 252 261 267 284 299 305 306 301 296 297 303 308
70 52 31 21 7 354 345 338 326 321 318 314 310 304 304 299 293 288 289 302 296 292 296 298 317 294 294 303 298 251 257 253 254 262 275 291 295 293 290 289 287 290 299
64 43 27 16 5 353 344 339 328 324 327 316 305 297 291 290 289 285 283 283 285 291 279 294 318 327 324 312 288 289 286 268 254 248 256 271 281 278 277 279 279 281 284
60 42 32 13 359 350 342 336 325 328 320 312 307 305 298 296 299 296 286 273 271 279 283 277 275 294 298 295 290 292 281 276 273 275 264 264 264 267 270 269 269 270 274
47 35 21 7 353 347 340 332 330 319 319 314 309 304 306 303 294 295 294 289 279 276 282 286 289 284 291 294 295 292 286 281 287 272 260 260 253 264 266 265 263 261 261
39 25 10 354 345 337 327 327 322 320 312 310 309 308 306 305 304 297 291 287 286 283 286 290 291 293 288 298 304 295 297 310 300 294 294 287 268 274 270 264 259 255 251
9 4 354 340 330 327 325 325 318 319 316 312 308 310 308 303 300 298 296 294 290 284 282 283 289 286 285 324 320 317 308 300 293 281 278 265 272 276 275 267 256 250 246
352 342 332 321 319 318 315 312 328 321 313 306 304 300 297 294 294 298 298 299 292 286 280 277 284 308 309 297 280 286 280 272 282 305 304 295 281 276 270 273 263 248 239
321 320 314 313 314 313 304 329 317 310 305 303 297 292 289 289 290 280 282 283 290 291 286 285 285 281 274 272 270 286 286 281 277 282 273 270 267 281 294 263 251 252 240
313 309 303 307 307 305 311 300 300 300 297 294 294 291 289 291 285 288 288 273 264 273 280 285 285 280 284 286 275 270 275 282 286 243 304 278 321 293 272 267 269 259 236
310 310 311 309 299 292 289 296 297 295 292 287 284 287 290 285 284 285 290 298 283 263 256 261 268 272 285 296 307 301 289 279 275 275 308 279 275 272 269 270 245 244 258
309 297 289 286 286 284 280 279 281 287 281 282 284 285 288 291 291 296 303 297 289 284 274 266 259 257 261 280 272 271 278 278 275 274 255 270 254 262 261 267 246 211 232
288 286 282 281 279 281 288 289 281 285 282 282 282 282 288 291 290 298 307 298 292 288 285 279 269 259 266 271 269 274 273 291 282 279 239 255 258 265 254 258 252 196 222
279 279 280 280 279 281 284 293 290 284 282 287 287 285 289 294 294 293 300 302 298 297 301 304 303 295 271 288 311 271 251 264 275 290 260 246 257 218 287 298 308 214 218